30-12-2022, 00:00:07,    148,    2.6,    3.0,   0.00,   0.00, 1002.5,   83.1, -999.0
30-12-2022, 00:00:16,    205,    0.5,    3.0,   0.00,   0.00, 1002.5,   83.1, -999.0
30-12-2022, 00:00:27,    204,    0.0,    2.9,   0.00,   0.00, 1002.4,   82.9, -999.0
30-12-2022, 00:00:37,    205,    0.2,    2.9,   0.00,   0.00, 1002.5,   83.1, -999.0
30-12-2022, 00:00:46,    205,    0.4,    3.0,   0.00,   0.00, 1002.6,   83.2, -999.0
30-12-2022, 00:00:56,    204,    0.1,    2.9,   0.00,   0.00, 1002.4,   82.9, -999.0
30-12-2022, 00:01:07,    205,    0.0,    2.9,   0.00,   0.00, 1002.4,   82.8, -999.0
30-12-2022, 00:01:16,    223,    0.7,    2.9,   0.00,   0.00, 1002.5,   83.0, -999.0
30-12-2022, 00:01:26,    222,    0.6,    2.9,   0.00,   0.00, 1002.6,   83.1, -999.0
30-12-2022, 00:01:36,    203,    0.3,    2.9,   0.00,   0.00, 1002.5,   83.0, -999.0
30-12-2022, 00:01:47,    203,    0.0,    2.9,   0.00,   0.00, 1002.5,   82.9, -999.0
30-12-2022, 00:01:56,    203,    0.0,    2.8,   0.00,   0.00, 1002.5,   82.9, -999.0
30-12-2022, 00:02:06,    157,    1.2,    2.9,   0.00,   0.00, 1002.6,   83.1, -999.0
30-12-2022, 00:02:16,    199,    2.3,    3.0,   0.00,   0.00, 1002.6,   83.3, -999.0
30-12-2022, 00:02:26,    196,    0.2,    2.9,   0.00,   0.00, 1002.5,   83.1, -999.0
30-12-2022, 00:02:36,    193,    0.2,    2.9,   0.00,   0.00, 1002.6,   83.3, -999.0
30-12-2022, 00:02:46,    193,    0.0,    2.8,   0.00,   0.00, 1002.5,   83.1, -999.0
30-12-2022, 00:02:56,    233,    0.0,    2.8,   0.00,   0.00, 1002.5,   83.1, -999.0
30-12-2022, 00:03:06,    228,    0.0,    2.8,   0.00,   0.00, 1002.5,   83.2, -999.0
30-12-2022, 00:03:16,    195,    0.2,    2.9,   0.00,   0.00, 1002.5,   83.3, -999.0
30-12-2022, 00:03:26,    194,    0.0,    2.8,   0.00,   0.00, 1002.4,   83.0, -999.0
30-12-2022, 00:03:36,    196,    0.2,    2.8,   0.00,   0.00, 1002.6,   83.2, -999.0
30-12-2022, 00:03:46,    196,    0.0,    2.8,   0.00,   0.00, 1002.5,   83.1, -999.0
30-12-2022, 00:03:56,    196,    0.0,    2.8,   0.00,   0.00, 1002.5,   83.1, -999.0
30-12-2022, 00:04:06,    195,    0.0,    2.8,   0.00,   0.00, 1002.5,   83.2, -999.0
30-12-2022, 00:04:16,    198,    0.0,    2.8,   0.00,   0.00, 1002.5,   83.3, -999.0
30-12-2022, 00:04:26,    198,    0.6,    2.9,   0.00,   0.00, 1002.6,   83.7, -999.0
30-12-2022, 00:04:36,    197,    0.2,    2.9,   0.00,   0.00, 1002.5,   83.5, -999.0
30-12-2022, 00:04:46,    198,    0.8,    2.9,   0.00,   0.00, 1002.5,   83.6, -999.0
30-12-2022, 00:04:56,    198,    0.2,    2.9,   0.00,   0.00, 1002.5,   83.5, -999.0
30-12-2022, 00:05:06,    201,    0.1,    2.9,   0.00,   0.00, 1002.5,   83.5, -999.0
30-12-2022, 00:05:16,    200,    0.4,    2.9,   0.00,   0.00, 1002.6,   83.7, -999.0
30-12-2022, 00:05:26,    201,    0.0,    2.8,   0.00,   0.00, 1002.4,   83.5, -999.0
30-12-2022, 00:05:36,    202,    0.0,    2.8,   0.00,   0.00, 1002.4,   83.5, -999.0
30-12-2022, 00:05:46,    201,    0.3,    2.9,   0.00,   0.00, 1002.5,   83.6, -999.0
30-12-2022, 00:05:56,    195,    0.8,    2.9,   0.00,   0.00, 1002.5,   83.8, -999.0
30-12-2022, 00:06:06,    195,    0.5,    2.9,   0.00,   0.00, 1002.6,   83.9, -999.0
30-12-2022, 00:06:16,    198,    0.3,    2.9,   0.00,   0.00, 1002.5,   83.8, -999.0
30-12-2022, 00:06:26,    199,    0.8,    2.9,   0.00,   0.00, 1002.6,   83.8, -999.0
30-12-2022, 00:06:36,    199,    0.4,    2.8,   0.00,   0.00, 1002.6,   83.8, -999.0
30-12-2022, 00:06:46,    199,    0.3,    2.9,   0.00,   0.00, 1002.6,   83.8, -999.0
30-12-2022, 00:06:56,    197,    0.9,    2.9,   0.00,   0.00, 1002.6,   83.9, -999.0
30-12-2022, 00:07:06,    180,    0.3,    2.8,   0.00,   0.00, 1002.5,   83.8, -999.0
30-12-2022, 00:07:16,    212,    0.3,    2.9,   0.00,   0.00, 1002.5,   83.8, -999.0
30-12-2022, 00:07:26,    213,    0.1,    2.8,   0.00,   0.00, 1002.5,   83.8, -999.0
30-12-2022, 00:07:36,    213,    0.0,    2.8,   0.00,   0.00, 1002.5,   83.7, -999.0
30-12-2022, 00:07:46,    201,    0.1,    2.9,   0.00,   0.00, 1002.5,   83.7, -999.0
30-12-2022, 00:07:56,    234,    0.8,    2.9,   0.00,   0.00, 1002.6,   83.9, -999.0
30-12-2022, 00:08:06,    218,    0.6,    2.9,   0.00,   0.00, 1002.5,   83.9, -999.0
30-12-2022, 00:08:16,    217,    0.0,    2.8,   0.00,   0.00, 1002.4,   83.8, -999.0
30-12-2022, 00:08:27,    218,    0.0,    2.8,   0.00,   0.00, 1002.4,   83.8, -999.0
30-12-2022, 00:08:35,    217,    0.0,    2.8,   0.00,   0.00, 1002.5,   83.9, -999.0
30-12-2022, 00:08:45,    217,    0.0,    2.8,   0.00,   0.00, 1002.5,   83.9, -999.0
30-12-2022, 00:08:56,    200,    0.3,    2.9,   0.00,   0.00, 1002.5,   84.2, -999.0
30-12-2022, 00:09:06,    200,    0.0,    2.8,   0.00,   0.00, 1002.4,   83.9, -999.0
30-12-2022, 00:09:15,    199,    0.2,    2.8,   0.00,   0.00, 1002.5,   84.0, -999.0
30-12-2022, 00:09:25,    200,    0.1,    2.9,   0.00,   0.00, 1002.5,   84.0, -999.0
30-12-2022, 00:09:36,    190,    0.5,    2.9,   0.00,   0.00, 1002.5,   84.4, -999.0
30-12-2022, 00:09:45,    190,    0.0,    2.8,   0.00,   0.00, 1002.4,   84.1, -999.0
30-12-2022, 00:09:55,    190,    0.0,    2.8,   0.00,   0.00, 1002.5,   84.1, -999.0
30-12-2022, 00:10:05,    190,    0.0,    2.7,   0.00,   0.00, 1002.5,   84.0, -999.0
30-12-2022, 00:10:16,    191,    0.0,    2.8,   0.00,   0.00, 1002.5,   84.2, -999.0
30-12-2022, 00:10:25,    189,    0.2,    2.8,   0.00,   0.00, 1002.5,   84.2, -999.0
30-12-2022, 00:10:35,    170,    1.3,    2.8,   0.00,   0.00, 1002.6,   84.4, -999.0
30-12-2022, 00:10:45,    169,    0.0,    2.8,   0.00,   0.00, 1002.5,   84.3, -999.0
30-12-2022, 00:10:55,    169,    0.0,    2.8,   0.00,   0.00, 1002.4,   84.2, -999.0
30-12-2022, 00:11:05,    169,    0.0,    2.8,   0.00,   0.00, 1002.4,   84.2, -999.0
30-12-2022, 00:11:15,    209,    0.0,    2.8,   0.00,   0.00, 1002.5,   84.4, -999.0
30-12-2022, 00:11:25,    219,    0.2,    2.9,   0.00,   0.00, 1002.5,   84.5, -999.0
30-12-2022, 00:11:35,    218,    0.0,    2.9,   0.00,   0.00, 1002.4,   84.4, -999.0
30-12-2022, 00:11:45,    218,    0.0,    2.9,   0.00,   0.00, 1002.4,   84.2, -999.0
30-12-2022, 00:11:55,    203,    0.0,    2.9,   0.00,   0.00, 1002.5,   84.1, -999.0
30-12-2022, 00:12:05,    203,    0.0,    2.9,   0.00,   0.00, 1002.4,   84.0, -999.0
30-12-2022, 00:12:15,    203,    0.0,    2.8,   0.00,   0.00, 1002.4,   84.0, -999.0
30-12-2022, 00:12:25,    203,    0.0,    2.9,   0.00,   0.00, 1002.5,   84.0, -999.0
30-12-2022, 00:12:35,    203,    0.0,    2.9,   0.00,   0.00, 1002.4,   84.0, -999.0
30-12-2022, 00:12:45,    191,    0.4,    2.9,   0.00,   0.00, 1002.5,   84.2, -999.0
30-12-2022, 00:12:55,    190,    0.2,    2.9,   0.00,   0.00, 1002.5,   84.2, -999.0
30-12-2022, 00:13:05,    191,    0.1,    2.9,   0.00,   0.00, 1002.5,   84.1, -999.0
30-12-2022, 00:13:15,    190,    0.1,    2.9,   0.00,   0.00, 1002.5,   84.1, -999.0
30-12-2022, 00:13:25,    190,    0.0,    2.8,   0.00,   0.00, 1002.5,   84.0, -999.0
30-12-2022, 00:13:35,    190,    0.0,    2.8,   0.00,   0.00, 1002.4,   84.0, -999.0
30-12-2022, 00:13:45,    191,    0.0,    2.9,   0.00,   0.00, 1002.4,   84.1, -999.0
30-12-2022, 00:13:55,    190,    0.0,    2.8,   0.00,   0.00, 1002.4,   84.0, -999.0
30-12-2022, 00:14:05,    191,    0.0,    2.8,   0.00,   0.00, 1002.4,   84.1, -999.0
30-12-2022, 00:14:15,    192,    0.0,    2.9,   0.00,   0.00, 1002.4,   84.1, -999.0
30-12-2022, 00:14:25,    190,    0.0,    2.8,   0.00,   0.00, 1002.4,   84.1, -999.0
30-12-2022, 00:14:35,    189,    0.0,    2.7,   0.00,   0.00, 1002.4,   84.0, -999.0
30-12-2022, 00:14:45,    189,    0.0,    2.8,   0.00,   0.00, 1002.5,   84.1, -999.0
30-12-2022, 00:14:55,    193,    0.3,    2.9,   0.00,   0.00, 1002.5,   84.2, -999.0
30-12-2022, 00:15:05,    192,    0.2,    2.8,   0.00,   0.00, 1002.5,   84.2, -999.0
30-12-2022, 00:15:15,    190,    0.7,    2.8,   0.00,   0.00, 1002.6,   84.5, -999.0
30-12-2022, 00:15:25,    190,    0.0,    2.8,   0.00,   0.00, 1002.6,   84.5, -999.0
30-12-2022, 00:15:35,    189,    0.0,    2.8,   0.00,   0.00, 1002.5,   84.4, -999.0
30-12-2022, 00:15:45,    191,    0.2,    2.8,   0.00,   0.00, 1002.6,   84.8, -999.0
30-12-2022, 00:15:55,    191,    0.0,    2.8,   0.00,   0.00, 1002.4,   84.5, -999.0
30-12-2022, 00:16:05,    191,    0.0,    2.8,   0.00,   0.00, 1002.5,   84.5, -999.0
30-12-2022, 00:16:15,    191,    0.1,    2.9,   0.00,   0.00, 1002.5,   84.5, -999.0
30-12-2022, 00:16:25,    190,    0.0,    2.9,   0.00,   0.00, 1002.5,   84.5, -999.0
30-12-2022, 00:16:35,    191,    0.0,    2.8,   0.00,   0.00, 1002.5,   84.4, -999.0
30-12-2022, 00:16:45,    190,    0.0,    2.8,   0.00,   0.00, 1002.5,   84.4, -999.0
30-12-2022, 00:16:55,    191,    0.0,    2.8,   0.00,   0.00, 1002.5,   84.3, -999.0
30-12-2022, 00:17:04,    191,    0.5,    2.9,   0.00,   0.00, 1002.6,   84.7, -999.0
30-12-2022, 00:17:15,    192,    0.2,    2.9,   0.00,   0.00, 1002.6,   84.8, -999.0
30-12-2022, 00:17:25,    192,    0.1,    2.9,   0.00,   0.00, 1002.5,   84.5, -999.0
30-12-2022, 00:17:35,    191,    0.0,    2.9,   0.00,   0.00, 1002.5,   84.7, -999.0
30-12-2022, 00:17:44,    185,    0.5,    2.9,   0.00,   0.00, 1002.5,   84.8, -999.0
30-12-2022, 00:17:55,    169,    0.9,    2.9,   0.00,   0.00, 1002.5,   84.7, -999.0
30-12-2022, 00:18:05,    167,    1.0,    3.0,   0.00,   0.00, 1002.6,   85.0, -999.0
30-12-2022, 00:18:14,    167,    0.0,    2.9,   0.00,   0.00, 1002.5,   84.8, -999.0
30-12-2022, 00:18:24,    166,    0.0,    2.9,   0.00,   0.00, 1002.4,   84.8, -999.0
30-12-2022, 00:18:35,    167,    0.0,    2.9,   0.00,   0.00, 1002.4,   84.5, -999.0
30-12-2022, 00:18:45,    167,    0.1,    2.9,   0.00,   0.00, 1002.5,   84.5, -999.0
30-12-2022, 00:18:54,    166,    0.0,    2.8,   0.00,   0.00, 1002.4,   84.3, -999.0
30-12-2022, 00:19:04,    166,    0.1,    2.9,   0.00,   0.00, 1002.5,   84.4, -999.0
30-12-2022, 00:19:15,    166,    1.1,    2.9,   0.00,   0.00, 1002.6,   84.7, -999.0
30-12-2022, 00:19:24,    165,    0.1,    2.9,   0.00,   0.00, 1002.5,   84.5, -999.0
30-12-2022, 00:19:34,    165,    0.4,    2.9,   0.00,   0.00, 1002.5,   84.8, -999.0
30-12-2022, 00:19:45,    165,    0.1,    2.9,   0.00,   0.00, 1002.4,   84.6, -999.0
30-12-2022, 00:19:54,    165,    0.0,    2.8,   0.00,   0.00, 1002.4,   84.5, -999.0
30-12-2022, 00:20:04,    165,    0.0,    2.8,   0.00,   0.00, 1002.4,   84.5, -999.0
30-12-2022, 00:20:14,    166,    0.0,    2.8,   0.00,   0.00, 1002.4,   84.4, -999.0
30-12-2022, 00:20:25,    165,    0.0,    2.8,   0.00,   0.00, 1002.4,   84.5, -999.0
30-12-2022, 00:20:34,    166,    0.0,    2.8,   0.00,   0.00, 1002.4,   84.5, -999.0
30-12-2022, 00:20:44,    165,    0.0,    2.8,   0.00,   0.00, 1002.3,   84.4, -999.0
30-12-2022, 00:20:54,    165,    0.0,    2.9,   0.00,   0.00, 1002.4,   84.4, -999.0
30-12-2022, 00:21:04,    165,    0.0,    2.8,   0.00,   0.00, 1002.4,   84.2, -999.0
30-12-2022, 00:21:14,    165,    0.0,    2.8,   0.00,   0.00, 1002.4,   84.3, -999.0
30-12-2022, 00:21:24,    165,    0.0,    2.8,   0.00,   0.00, 1002.4,   84.3, -999.0
30-12-2022, 00:21:34,    165,    0.0,    2.8,   0.00,   0.00, 1002.3,   84.3, -999.0
30-12-2022, 00:21:44,    165,    0.2,    2.8,   0.00,   0.00, 1002.4,   84.7, -999.0
30-12-2022, 00:21:54,    165,    0.1,    2.8,   0.00,   0.00, 1002.3,   84.6, -999.0
30-12-2022, 00:22:04,    165,    0.1,    2.8,   0.00,   0.00, 1002.3,   84.6, -999.0
30-12-2022, 00:22:14,    165,    0.7,    2.8,   0.00,   0.00, 1002.3,   84.8, -999.0
30-12-2022, 00:22:24,    165,    0.0,    2.8,   0.00,   0.00, 1002.3,   84.8, -999.0
30-12-2022, 00:22:34,    165,    0.0,    2.8,   0.00,   0.00, 1002.3,   84.8, -999.0
30-12-2022, 00:22:44,    165,    0.0,    2.8,   0.00,   0.00, 1002.3,   84.8, -999.0
30-12-2022, 00:22:54,    165,    0.0,    2.7,   0.00,   0.00, 1002.3,   84.8, -999.0
30-12-2022, 00:23:04,    165,    0.0,    2.8,   0.00,   0.00, 1002.3,   84.8, -999.0
30-12-2022, 00:23:14,    165,    0.0,    2.8,   0.00,   0.00, 1002.3,   84.9, -999.0
30-12-2022, 00:23:24,    165,    0.0,    2.8,   0.00,   0.00, 1002.2,   84.9, -999.0
30-12-2022, 00:23:34,    165,    0.0,    2.9,   0.00,   0.00, 1002.3,   85.1, -999.0
30-12-2022, 00:23:44,    165,    0.3,    2.9,   0.00,   0.00, 1002.4,   85.1, -999.0
30-12-2022, 00:23:54,    165,    0.0,    2.7,   0.00,   0.00, 1002.3,   84.7, -999.0
30-12-2022, 00:24:04,    165,    0.1,    2.7,   0.00,   0.00, 1002.4,   84.9, -999.0
30-12-2022, 00:24:14,    161,    0.0,    2.8,   0.00,   0.00, 1002.2,   84.8, -999.0
30-12-2022, 00:24:24,    164,    0.0,    2.9,   0.00,   0.00, 1002.3,   85.2, -999.0
30-12-2022, 00:24:34,    164,    0.0,    2.9,   0.00,   0.00, 1002.3,   84.9, -999.0
30-12-2022, 00:24:44,    165,    0.0,    2.9,   0.00,   0.00, 1002.2,   84.7, -999.0
30-12-2022, 00:24:54,    165,    0.0,    2.9,   0.00,   0.00, 1002.3,   84.5, -999.0
30-12-2022, 00:25:04,    165,    0.0,    2.9,   0.00,   0.00, 1002.3,   84.4, -999.0
30-12-2022, 00:25:14,    165,    0.0,    2.8,   0.00,   0.00, 1002.3,   84.2, -999.0
30-12-2022, 00:25:24,    165,    0.0,    2.8,   0.00,   0.00, 1002.2,   84.2, -999.0
30-12-2022, 00:25:34,    164,    0.0,    2.8,   0.00,   0.00, 1002.2,   84.2, -999.0
30-12-2022, 00:25:44,    164,    0.0,    2.8,   0.00,   0.00, 1002.2,   84.2, -999.0
30-12-2022, 00:25:54,    165,    0.0,    2.6,   0.00,   0.00, 1002.2,   84.0, -999.0
30-12-2022, 00:26:03,    165,    0.0,    2.7,   0.00,   0.00, 1002.2,   84.0, -999.0
30-12-2022, 00:26:14,    164,    0.0,    2.7,   0.00,   0.00, 1002.2,   84.0, -999.0
30-12-2022, 00:26:24,    164,    0.0,    2.7,   0.00,   0.00, 1002.2,   84.2, -999.0
30-12-2022, 00:26:33,    164,    0.0,    2.7,   0.00,   0.00, 1002.2,   84.3, -999.0
30-12-2022, 00:26:44,    164,    0.0,    2.8,   0.00,   0.00, 1002.3,   84.5, -999.0
30-12-2022, 00:26:54,    165,    0.3,    2.8,   0.00,   0.00, 1002.3,   84.6, -999.0
30-12-2022, 00:27:04,    165,    0.5,    2.9,   0.00,   0.00, 1002.4,   84.9, -999.0
30-12-2022, 00:27:13,    167,    0.6,    2.8,   0.00,   0.00, 1002.3,   85.1, -999.0
30-12-2022, 00:27:24,    163,    0.1,    2.8,   0.00,   0.00, 1002.3,   84.8, -999.0
30-12-2022, 00:27:34,    164,    0.3,    2.8,   0.00,   0.00, 1002.3,   84.9, -999.0
30-12-2022, 00:27:43,    157,    0.7,    2.7,   0.00,   0.00, 1002.3,   84.7, -999.0
30-12-2022, 00:27:53,    157,    0.3,    2.7,   0.00,   0.00, 1002.3,   84.7, -999.0
30-12-2022, 00:28:04,    157,    0.2,    2.6,   0.00,   0.00, 1002.3,   84.8, -999.0
30-12-2022, 00:28:14,    157,    0.0,    2.7,   0.00,   0.00, 1002.2,   84.8, -999.0
30-12-2022, 00:28:23,    157,    0.0,    2.6,   0.00,   0.00, 1002.2,   84.5, -999.0
30-12-2022, 00:28:33,    157,    0.5,    2.6,   0.00,   0.00, 1002.3,   84.7, -999.0
30-12-2022, 00:28:44,    157,    0.4,    2.7,   0.00,   0.00, 1002.4,   84.9, -999.0
30-12-2022, 00:28:53,    157,    0.0,    2.7,   0.00,   0.00, 1002.2,   84.8, -999.0
30-12-2022, 00:29:03,    156,    0.0,    2.7,   0.00,   0.00, 1002.3,   85.0, -999.0
30-12-2022, 00:29:13,    156,    0.0,    2.7,   0.00,   0.00, 1002.2,   84.9, -999.0
30-12-2022, 00:29:23,    157,    0.1,    2.7,   0.00,   0.00, 1002.3,   85.1, -999.0
30-12-2022, 00:29:33,    157,    0.0,    2.6,   0.00,   0.00, 1002.2,   84.8, -999.0
30-12-2022, 00:29:43,    156,    0.4,    2.6,   0.00,   0.00, 1002.3,   85.1, -999.0
30-12-2022, 00:29:53,    157,    0.2,    2.7,   0.00,   0.00, 1002.3,   85.0, -999.0
30-12-2022, 00:30:03,    156,    0.0,    2.7,   0.00,   0.00, 1002.2,   85.0, -999.0
30-12-2022, 00:30:13,    156,    0.5,    2.7,   0.00,   0.00, 1002.3,   85.4, -999.0
30-12-2022, 00:30:23,    156,    0.8,    2.7,   0.00,   0.00, 1002.3,   85.6, -999.0
30-12-2022, 00:30:33,    156,    0.0,    2.7,   0.00,   0.00, 1002.2,   85.4, -999.0
30-12-2022, 00:30:43,    156,    0.2,    2.7,   0.00,   0.00, 1002.3,   85.6, -999.0
30-12-2022, 00:30:53,    156,    0.0,    2.7,   0.00,   0.00, 1002.2,   85.6, -999.0
30-12-2022, 00:31:03,    156,    0.0,    2.7,   0.00,   0.00, 1002.2,   85.9, -999.0
30-12-2022, 00:31:13,    156,    0.3,    2.8,   0.00,   0.00, 1002.3,   86.1, -999.0
30-12-2022, 00:31:23,    155,    0.0,    2.7,   0.00,   0.00, 1002.2,   85.4, -999.0
30-12-2022, 00:31:33,    155,    0.2,    2.7,   0.00,   0.00, 1002.3,   85.4, -999.0
30-12-2022, 00:31:43,    156,    0.1,    2.7,   0.00,   0.00, 1002.3,   85.2, -999.0
30-12-2022, 00:31:53,    156,    0.3,    2.8,   0.00,   0.00, 1002.3,   85.1, -999.0
30-12-2022, 00:32:03,    156,    0.6,    2.7,   0.00,   0.00, 1002.3,   85.0, -999.0
30-12-2022, 00:32:13,    155,    0.8,    2.6,   0.00,   0.00, 1002.3,   84.8, -999.0
30-12-2022, 00:32:23,    155,    0.4,    2.6,   0.00,   0.00, 1002.3,   84.8, -999.0
30-12-2022, 00:32:33,    155,    0.1,    2.6,   0.00,   0.00, 1002.2,   84.6, -999.0
30-12-2022, 00:32:43,    147,    1.1,    2.6,   0.00,   0.00, 1002.3,   84.9, -999.0
30-12-2022, 00:32:53,    145,    1.0,    2.7,   0.00,   0.00, 1002.3,   85.1, -999.0
30-12-2022, 00:33:03,    143,    1.5,    2.7,   0.00,   0.00, 1002.3,   85.2, -999.0
30-12-2022, 00:33:13,    143,    0.8,    2.7,   0.00,   0.00, 1002.2,   85.3, -999.0
30-12-2022, 00:33:23,    142,    0.0,    2.5,   0.00,   0.00, 1002.1,   84.8, -999.0
30-12-2022, 00:33:33,    143,    0.0,    2.5,   0.00,   0.00, 1002.1,   84.9, -999.0
30-12-2022, 00:33:43,    143,    1.0,    2.5,   0.00,   0.00, 1002.2,   85.2, -999.0
30-12-2022, 00:33:53,    142,    0.8,    2.6,   0.00,   0.00, 1002.2,   85.4, -999.0
30-12-2022, 00:34:03,    142,    0.3,    2.6,   0.00,   0.00, 1002.1,   85.6, -999.0
30-12-2022, 00:34:13,    142,    0.5,    2.7,   0.00,   0.00, 1002.2,   86.4, -999.0
30-12-2022, 00:34:23,    142,    0.5,    2.7,   0.00,   0.00, 1002.2,   86.3, -999.0
30-12-2022, 00:34:33,    142,    0.0,    2.6,   0.00,   0.00, 1002.1,   85.7, -999.0
30-12-2022, 00:34:43,    142,    0.0,    2.5,   0.00,   0.00, 1002.1,   85.4, -999.0
30-12-2022, 00:34:53,    142,    0.0,    2.6,   0.00,   0.00, 1002.0,   85.3, -999.0
30-12-2022, 00:35:03,    142,    0.0,    2.6,   0.00,   0.00, 1002.1,   85.5, -999.0
30-12-2022, 00:35:13,    141,    0.1,    2.6,   0.00,   0.00, 1002.1,   85.6, -999.0
30-12-2022, 00:35:23,    142,    0.0,    2.5,   0.00,   0.00, 1002.1,   85.5, -999.0
30-12-2022, 00:35:32,    141,    0.0,    2.5,   0.00,   0.00, 1002.1,   85.4, -999.0
30-12-2022, 00:35:43,    142,    0.0,    2.5,   0.00,   0.00, 1002.0,   85.5, -999.0
30-12-2022, 00:35:53,    142,    0.0,    2.5,   0.00,   0.00, 1002.1,   85.5, -999.0
30-12-2022, 00:36:03,    142,    0.0,    2.5,   0.00,   0.00, 1002.1,   85.6, -999.0
30-12-2022, 00:36:12,    142,    0.0,    2.5,   0.00,   0.00, 1002.1,   85.8, -999.0
30-12-2022, 00:36:23,    142,    0.0,    2.6,   0.00,   0.00, 1002.1,   86.3, -999.0
30-12-2022, 00:36:33,    142,    0.1,    2.6,   0.00,   0.00, 1002.1,   86.6, -999.0
30-12-2022, 00:36:42,    142,    0.1,    2.5,   0.00,   0.00, 1002.1,   86.2, -999.0
30-12-2022, 00:36:52,    142,    0.0,    2.5,   0.00,   0.00, 1002.1,   85.9, -999.0
30-12-2022, 00:37:03,    142,    0.0,    2.4,   0.00,   0.00, 1002.1,   85.7, -999.0
30-12-2022, 00:37:12,    141,    0.0,    2.4,   0.00,   0.00, 1002.0,   85.6, -999.0
30-12-2022, 00:37:22,    142,    0.0,    2.5,   0.00,   0.00, 1002.0,   85.7, -999.0
30-12-2022, 00:37:32,    141,    0.0,    2.5,   0.00,   0.00, 1002.1,   86.1, -999.0
30-12-2022, 00:37:43,    142,    1.0,    2.6,   0.00,   0.00, 1002.1,   87.4, -999.0
30-12-2022, 00:37:52,    142,    1.2,    2.6,   0.00,   0.00, 1002.1,   87.9, -999.0
30-12-2022, 00:38:02,    141,    0.8,    2.6,   0.00,   0.00, 1002.2,   87.4, -999.0
30-12-2022, 00:38:13,    141,    0.2,    2.5,   0.00,   0.00, 1002.1,   87.0, -999.0
30-12-2022, 00:38:22,    141,    0.4,    2.5,   0.00,   0.00, 1002.1,   87.1, -999.0
30-12-2022, 00:38:32,    141,    0.6,    2.5,   0.00,   0.00, 1002.1,   87.2, -999.0
30-12-2022, 00:38:42,    141,    0.5,    2.5,   0.00,   0.00, 1002.1,   87.3, -999.0
30-12-2022, 00:38:53,    141,    0.1,    2.5,   0.00,   0.00, 1002.0,   87.7, -999.0
30-12-2022, 00:39:02,    142,    0.1,    2.4,   0.00,   0.00, 1002.1,   87.8, -999.0
30-12-2022, 00:39:12,    128,    2.0,    2.5,   0.00,   0.00, 1002.1,   88.0, -999.0
30-12-2022, 00:39:22,    103,    1.7,    2.5,   0.00,   0.00, 1002.1,   88.6, -999.0
30-12-2022, 00:39:32,    109,    0.3,    2.4,   0.00,   0.00, 1002.0,   89.6, -999.0
30-12-2022, 00:39:42,    108,    0.4,    2.4,   0.00,   0.00, 1002.1,   90.3, -999.0
30-12-2022, 00:39:52,    113,    0.3,    2.5,   0.00,   0.00, 1002.1,   91.3, -999.0
30-12-2022, 00:40:02,    113,    0.2,    2.5,   0.00,   0.00, 1002.1,   91.9, -999.0
30-12-2022, 00:40:12,    114,    0.1,    2.5,   0.00,   0.00, 1002.1,   91.4, -999.0
30-12-2022, 00:40:22,    111,    0.0,    2.5,   0.00,   0.00, 1002.1,   91.3, -999.0
30-12-2022, 00:40:32,    115,    0.0,    2.4,   0.00,   0.00, 1002.0,   90.5, -999.0
30-12-2022, 00:40:42,    117,    0.1,    2.4,   0.00,   0.00, 1002.1,   90.3, -999.0
30-12-2022, 00:40:52,    128,    0.7,    2.5,   0.00,   0.00, 1002.1,   90.3, -999.0
30-12-2022, 00:41:02,    148,    0.0,    2.4,   0.00,   0.00, 1002.1,   90.2, -999.0
30-12-2022, 00:41:12,    201,    0.3,    2.4,   0.00,   0.00, 1002.1,   90.5, -999.0
30-12-2022, 00:41:22,    201,    0.0,    2.4,   0.00,   0.00, 1002.1,   90.3, -999.0
30-12-2022, 00:41:32,    198,    0.1,    2.4,   0.00,   0.00, 1002.1,   90.8, -999.0
30-12-2022, 00:41:42,    171,    0.6,    2.4,   0.00,   0.00, 1002.1,   92.0, -999.0
30-12-2022, 00:41:52,    171,    0.0,    2.4,   0.00,   0.00, 1002.0,   92.6, -999.0
30-12-2022, 00:42:02,    171,    0.0,    2.4,   0.00,   0.00, 1002.0,   92.8, -999.0
30-12-2022, 00:42:12,    171,    0.1,    2.4,   0.00,   0.00, 1002.1,   93.0, -999.0
30-12-2022, 00:42:22,    171,    0.0,    2.4,   0.00,   0.00, 1002.0,   93.3, -999.0
30-12-2022, 00:42:32,    171,    0.0,    2.3,   0.00,   0.00, 1002.0,   93.6, -999.0
30-12-2022, 00:42:42,    171,    0.0,    2.3,   0.00,   0.00, 1002.0,   94.1, -999.0
30-12-2022, 00:42:52,    170,    0.0,    2.4,   0.00,   0.00, 1002.0,   94.9, -999.0
30-12-2022, 00:43:02,    147,    1.5,    2.5,   0.00,   0.00, 1002.1,   95.9, -999.0
30-12-2022, 00:43:12,    146,    0.7,    2.4,   0.00,   0.00, 1002.1,   96.7, -999.0
30-12-2022, 00:43:22,    171,    0.4,    2.4,   0.00,   0.00, 1002.1,   97.3, -999.0
30-12-2022, 00:43:32,    176,    0.7,    2.4,   0.00,   0.00, 1002.1,   98.1, -999.0
30-12-2022, 00:43:42,    176,    0.1,    2.3,   0.00,   0.00, 1002.1,   98.1, -999.0
30-12-2022, 00:43:52,    176,    0.2,    2.3,   0.00,   0.00, 1002.1,   98.7, -999.0
30-12-2022, 00:44:02,    175,    0.0,    2.3,   0.00,   0.00, 1002.0,   98.7, -999.0
30-12-2022, 00:44:12,    175,    0.2,    2.4,   0.00,   0.00, 1002.1,   98.7, -999.0
30-12-2022, 00:44:22,    175,    0.3,    2.3,   0.00,   0.00, 1002.1,   98.9, -999.0
30-12-2022, 00:44:31,    173,    0.9,    2.4,   0.00,   0.00, 1002.1,   99.0, -999.0
30-12-2022, 00:44:42,    172,    1.2,    2.4,   0.00,   0.00, 1002.1,   99.0, -999.0
30-12-2022, 00:44:52,    172,    0.3,    2.3,   0.00,   0.00, 1002.0,   98.8, -999.0
30-12-2022, 00:45:01,    172,    0.1,    2.2,   0.00,   0.00, 1002.1,   98.8, -999.0
30-12-2022, 00:45:12,    172,    0.1,    2.3,   0.00,   0.00, 1002.0,   98.7, -999.0
30-12-2022, 00:45:22,    172,    0.0,    2.3,   0.00,   0.00, 1002.0,   98.6, -999.0
30-12-2022, 00:45:32,    172,    0.0,    2.3,   0.00,   0.00, 1002.0,   98.7, -999.0
30-12-2022, 00:45:41,    156,    0.5,    2.4,   0.00,   0.00, 1002.1,   99.0, -999.0
30-12-2022, 00:45:52,    156,    0.0,    2.4,   0.00,   0.00, 1002.0,   98.8, -999.0
30-12-2022, 00:46:02,    156,    1.1,    2.4,   0.00,   0.00, 1002.1,   99.0, -999.0
30-12-2022, 00:46:11,    156,    0.1,    2.3,   0.00,   0.00, 1002.0,   98.8, -999.0
30-12-2022, 00:46:21,    156,    0.0,    2.3,   0.00,   0.00, 1002.0,   98.6, -999.0
30-12-2022, 00:46:32,    156,    0.1,    2.4,   0.00,   0.00, 1002.0,   98.9, -999.0
30-12-2022, 00:46:41,    158,    0.4,    2.4,   0.00,   0.00, 1002.0,   98.9, -999.0
30-12-2022, 00:46:51,    158,    0.6,    2.4,   0.00,   0.00, 1002.1,   98.9, -999.0